| time (UTC) | temp C | wind direction | speed KPH | gust KPH | rain 1hr cm | rain 24hr cm | rain mn cm | humidity % | barometer mb |
| 20260509135335 | 23 | 293 | 3.2 | 6.4 | 0.00 | 0.00 | 0.00 | 81 | 1043.0 |
| 20260509134832 | 22 | 295 | 3.2 | 8.0 | 0.00 | 0.00 | 0.00 | 83 | 1042.8 |
| 20260509134329 | 22 | 346 | 3.2 | 4.8 | 0.00 | 0.00 | 0.00 | 83 | 1042.7 |
| 20260509133826 | 22 | 356 | 3.2 | 4.8 | 0.00 | 0.00 | 0.00 | 84 | 1042.9 |
| 20260509133323 | 21 | 326 | 0.0 | 4.8 | 0.00 | 0.00 | 0.00 | 85 | 1042.9 |
| 20260509132822 | 21 | 358 | 3.2 | 4.8 | 0.00 | 0.00 | 0.00 | 86 | 1042.8 |
| 20260509132320 | 21 | 323 | 3.2 | 4.8 | 0.00 | 0.00 | 0.00 | 86 | 1042.8 |
| 20260509131816 | 21 | 268 | 3.2 | 4.8 | 0.00 | 0.00 | 0.00 | 87 | 1042.7 |
| 20260509131313 | 21 | 297 | 3.2 | 3.2 | 0.00 | 0.00 | 0.00 | 90 | 1042.7 |
| 20260509130809 | 20 | 232 | 0.0 | 3.2 | 0.00 | 0.00 | 0.00 | 91 | 1042.6 |
| 20260509130305 | 20 | 307 | 3.2 | 3.2 | 0.00 | 0.00 | 0.00 | 93 | 1042.4 |
| 20260509125802 | 20 | 313 | 3.2 | 4.8 | 0.00 | 0.00 | 0.00 | 93 | 1042.8 |
| 20260509125259 | 19 | 301 | 3.2 | 4.8 | 0.00 | 0.00 | 0.00 | 94 | 1042.9 |
| 20260509124755 | 19 | 289 | 1.6 | 4.8 | 0.00 | 0.00 | 0.00 | 94 | 1042.6 |
| 20260509124251 | 19 | 307 | 3.2 | 3.2 | 0.00 | 0.00 | 0.00 | 95 | 1042.6 |
| 20260509123750 | 19 | 289 | 0.0 | 3.2 | 0.00 | 0.00 | 0.00 | 96 | 1042.4 |
| 20260509123247 | 19 | 327 | 0.0 | 1.6 | 0.00 | 0.00 | 0.00 | 96 | 1042.5 |
| 20260509122742 | 18 | 308 | 0.0 | 1.6 | 0.00 | 0.00 | 0.00 | 97 | 1042.3 |
| 20260509122239 | 18 | 292 | 1.6 | 3.2 | 0.00 | 0.00 | 0.00 | 97 | 1042.0 |
| 20260509121736 | 17 | 281 | 3.2 | 3.2 | 0.00 | 0.00 | 0.00 | 97 | 1041.9 |
| 20260509121233 | 17 | 292 | 3.2 | 4.8 | 0.00 | 0.00 | 0.00 | 96 | 1041.8 |
| 20260509120732 | 17 | 298 | 4.8 | 4.8 | 0.00 | 0.00 | 0.00 | 96 | 1041.7 |
| 20260509120229 | 17 | 298 | 3.2 | 4.8 | 0.00 | 0.00 | 0.00 | 96 | 1041.4 |
| 20260509115727 | 17 | 307 | 3.2 | 3.2 | 0.00 | 0.00 | 0.00 | 96 | 1041.4 |
| 20260509115224 | 17 | 309 | 3.2 | 3.2 | 0.00 | 0.00 | 0.00 | 96 | 1041.5 |
| 20260509114722 | 17 | 303 | 3.2 | 4.8 | 0.00 | 0.00 | 0.00 | 96 | 1041.8 |
| 20260509114221 | 17 | 299 | 1.6 | 3.2 | 0.00 | 0.00 | 0.00 | 96 | 1041.2 |
| 20260509113719 | 17 | 305 | 3.2 | 3.2 | 0.00 | 0.00 | 0.00 | 96 | 1041.3 |
| 20260509113216 | 17 | 314 | 3.2 | 3.2 | 0.00 | 0.00 | 0.00 | 96 | 1041.4 |
| 20260509112713 | 17 | 323 | 3.2 | 3.2 | 0.00 | 0.00 | 0.00 | 96 | 1041.1 |
| 20260509112210 | 17 | 313 | 1.6 | 3.2 | 0.00 | 0.00 | 0.00 | 96 | 1041.3 |
| 20260509111706 | 17 | 271 | 1.6 | 1.6 | 0.00 | 0.00 | 0.00 | 95 | 1041.0 |
| 20260509111203 | 17 | 264 | 3.2 | 3.2 | 0.00 | 0.00 | 0.00 | 95 | 1041.2 |
| 20260509110701 | 17 | 304 | 1.6 | 1.6 | 0.00 | 0.00 | 0.00 | 95 | 1040.9 |
| 20260509110157 | 17 | 307 | 0.0 | 3.2 | 0.00 | 0.00 | 0.00 | 95 | 1041.0 |
| 20260509105655 | 18 | 253 | 3.2 | 3.2 | 0.00 | 0.00 | 0.00 | 95 | 1040.9 |
| 20260509105153 | 18 | 70 | 0.0 | 1.6 | 0.00 | 0.00 | 0.00 | 95 | 1040.8 |
| 20260509104650 | 18 | 353 | 1.6 | 3.2 | 0.00 | 0.00 | 0.00 | 95 | 1040.7 |
| 20260509104147 | 18 | 334 | 1.6 | 3.2 | 0.00 | 0.00 | 0.00 | 95 | 1040.9 |
| 20260509103645 | 18 | 354 | 1.6 | 3.2 | 0.00 | 0.00 | 0.00 | 95 | 1040.8 |
| 20260509103142 | 18 | 350 | 3.2 | 4.8 | 0.00 | 0.00 | 0.00 | 94 | 1040.8 |
| 20260509102640 | 18 | 0 | 1.6 | 3.2 | 0.00 | 0.00 | 0.00 | 94 | 1040.9 |
| 20260509102136 | 18 | 2 | 3.2 | 6.4 | 0.00 | 0.00 | 0.00 | 94 | 1040.4 |
| 20260509101633 | 18 | 15 | 4.8 | 4.8 | 0.00 | 0.00 | 0.00 | 94 | 1040.4 |
| 20260509101129 | 18 | 358 | 4.8 | 4.8 | 0.00 | 0.00 | 0.00 | 94 | 1040.5 |
| 20260509100627 | 18 | 320 | 3.2 | 4.8 | 0.00 | 0.00 | 0.00 | 94 | 1040.4 |
| 20260509100124 | 18 | 9 | 3.2 | 4.8 | 0.00 | 0.00 | 0.00 | 94 | 1040.4 |
| 20260509095620 | 18 | 356 | 3.2 | 4.8 | 0.00 | 0.00 | 0.00 | 94 | 1040.4 |
| 20260509095118 | 18 | 38 | 3.2 | 3.2 | 0.00 | 0.00 | 0.00 | 93 | 1040.4 |
| 20260509094614 | 18 | 17 | 3.2 | 3.2 | 0.00 | 0.00 | 0.00 | 93 | 1040.7 |
| 20260509094111 | 18 | 20 | 4.8 | 4.8 | 0.00 | 0.00 | 0.00 | 93 | 1040.6 |
| 20260509093610 | 18 | 32 | 4.8 | 4.8 | 0.00 | 0.00 | 0.00 | 93 | 1040.4 |
| 20260509093106 | 18 | 31 | 3.2 | 4.8 | 0.00 | 0.00 | 0.00 | 93 | 1040.2 |
| 20260509092604 | 18 | 2 | 1.6 | 3.2 | 0.00 | 0.00 | 0.00 | 92 | 1040.5 |
| 20260509092103 | 18 | 30 | 3.2 | 4.8 | 0.00 | 0.00 | 0.00 | 92 | 1040.5 |
| 20260509091600 | 18 | 28 | 4.8 | 4.8 | 0.00 | 0.00 | 0.00 | 92 | 1040.3 |
| 20260509091056 | 18 | 6 | 3.2 | 4.8 | 0.00 | 0.00 | 0.00 | 92 | 1040.6 |
| 20260509090554 | 18 | 311 | 3.2 | 3.2 | 0.00 | 0.00 | 0.00 | 92 | 1040.3 |
| 20260509090051 | 19 | 358 | 3.2 | 3.2 | 0.00 | 0.00 | 0.00 | 92 | 1040.3 |
| 20260509085548 | 19 | 51 | 3.2 | 4.8 | 0.00 | 0.00 | 0.00 | 91 | 1040.2 |
| 20260509085044 | 19 | 54 | 4.8 | 8.0 | 0.00 | 0.00 | 0.00 | 91 | 1040.5 |
| 20260509084541 | 19 | 57 | 4.8 | 11.3 | 0.00 | 0.00 | 0.00 | 91 | 1040.3 |
| 20260509084038 | 19 | 27 | 4.8 | 9.7 | 0.00 | 0.00 | 0.00 | 91 | 1040.4 |
| 20260509083536 | 19 | 31 | 3.2 | 9.7 | 0.00 | 0.00 | 0.00 | 91 | 1040.7 |
| 20260509083032 | 19 | 34 | 4.8 | 11.3 | 0.00 | 0.00 | 0.00 | 91 | 1040.8 |
| 20260509082530 | 19 | 27 | 3.2 | 8.0 | 0.00 | 0.00 | 0.00 | 91 | 1040.8 |
| 20260509082027 | 20 | 33 | 8.0 | 11.3 | 0.00 | 0.00 | 0.00 | 90 | 1040.8 |
| 20260509081524 | 20 | 55 | 8.0 | 9.7 | 0.00 | 0.00 | 0.00 | 90 | 1040.9 |
| 20260509081021 | 20 | 26 | 4.8 | 6.4 | 0.00 | 0.00 | 0.00 | 90 | 1040.9 |
| 20260509080519 | 20 | 42 | 3.2 | 4.8 | 0.00 | 0.00 | 0.00 | 89 | 1041.1 |
| 20260509080017 | 20 | 29 | 3.2 | 6.4 | 0.00 | 0.00 | 0.00 | 89 | 1041.0 |
| 20260509075514 | 20 | 18 | 4.8 | 6.4 | 0.00 | 0.00 | 0.00 | 88 | 1041.0 |
| 20260509075012 | 20 | 33 | 3.2 | 6.4 | 0.00 | 0.00 | 0.00 | 87 | 1040.7 |
| 20260509074509 | 20 | 67 | 4.8 | 4.8 | 0.00 | 0.00 | 0.00 | 86 | 1041.0 |
| 20260509074005 | 20 | 8 | 0.0 | 1.6 | 0.00 | 0.00 | 0.00 | 86 | 1041.0 |
| 20260509073501 | 20 | 15 | 0.0 | 4.8 | 0.00 | 0.00 | 0.00 | 86 | 1040.6 |
| 20260509072958 | 21 | 232 | 3.2 | 4.8 | 0.00 | 0.00 | 0.00 | 86 | 1040.6 |
| 20260509072455 | 21 | 212 | 3.2 | 4.8 | 0.00 | 0.00 | 0.00 | 85 | 1040.6 |
| 20260509071951 | 21 | 214 | 6.4 | 8.0 | 0.00 | 0.00 | 0.00 | 85 | 1040.3 |
| 20260509071448 | 21 | 193 | 4.8 | 8.0 | 0.00 | 0.00 | 0.00 | 84 | 1040.5 |
| 20260509070946 | 21 | 208 | 4.8 | 8.0 | 0.00 | 0.00 | 0.00 | 84 | 1040.5 |
| 20260509070443 | 21 | 151 | 0.0 | 4.8 | 0.00 | 0.00 | 0.00 | 85 | 1040.4 |
| 20260509065938 | 21 | 291 | 3.2 | 6.4 | 0.00 | 0.00 | 0.00 | 85 | 1040.7 |
| 20260509065434 | 21 | 279 | 3.2 | 4.8 | 0.00 | 0.00 | 0.00 | 85 | 1040.9 |
| 20260509064931 | 20 | 258 | 0.0 | 3.2 | 0.00 | 0.00 | 0.00 | 85 | 1040.9 |
| 20260509064429 | 20 | 164 | 3.2 | 6.4 | 0.00 | 0.00 | 0.00 | 85 | 1041.1 |
| 20260509063926 | 20 | 252 | 3.2 | 4.8 | 0.00 | 0.00 | 0.00 | 86 | 1041.2 |
| 20260509063421 | 20 | 200 | 4.8 | 4.8 | 0.00 | 0.00 | 0.00 | 86 | 1041.1 |
| 20260509062919 | 20 | 190 | 0.0 | 3.2 | 0.00 | 0.00 | 0.00 | 85 | 1041.3 |
| 20260509062416 | 20 | 215 | 0.0 | 3.2 | 0.00 | 0.00 | 0.00 | 85 | 1041.6 |
| 20260509061914 | 20 | 327 | 1.6 | 4.8 | 0.00 | 0.00 | 0.00 | 85 | 1041.8 |
| 20260509061411 | 20 | 207 | 1.6 | 3.2 | 0.00 | 0.00 | 0.00 | 84 | 1041.4 |
| 20260509060908 | 20 | 303 | 3.2 | 4.8 | 0.00 | 0.00 | 0.00 | 85 | 1041.8 |
| 20260509060405 | 20 | 289 | 0.0 | 8.0 | 0.00 | 0.00 | 0.00 | 86 | 1041.7 |
| 20260509055900 | 20 | 109 | 0.0 | 1.6 | 0.00 | 0.00 | 0.00 | 86 | 1041.1 |
| 20260509055355 | 20 | 358 | 0.0 | 1.6 | 0.00 | 0.00 | 0.00 | 85 | 1041.7 |
| 20260509054853 | 20 | 260 | 0.0 | 1.6 | 0.00 | 0.00 | 0.00 | 85 | 1041.8 |
| 20260509054350 | 20 | 316 | 0.0 | 3.2 | 0.00 | 0.00 | 0.00 | 85 | 1041.8 |
| 20260509053848 | 20 | 299 | 0.0 | 3.2 | 0.00 | 0.00 | 0.00 | 85 | 1041.7 |
| 20260509053345 | 20 | 248 | 0.0 | 1.6 | 0.00 | 0.00 | 0.00 | 84 | 1041.6 |
| 20260509052843 | 20 | 84 | 6.4 | 6.4 | 0.00 | 0.00 | 0.00 | 84 | 1041.6 |
| 20260509052340 | 21 | 46 | 3.2 | 4.8 | 0.00 | 0.00 | 0.00 | 84 | 1041.7 |
| 20260509051838 | 21 | 41 | 4.8 | 4.8 | 0.00 | 0.00 | 0.00 | 83 | 1041.9 |
| 20260509051336 | 21 | 65 | 4.8 | 6.4 | 0.00 | 0.00 | 0.00 | 83 | 1041.4 |
| 20260509050832 | 21 | 63 | 4.8 | 4.8 | 0.00 | 0.00 | 0.00 | 83 | 1041.4 |
| 20260509050329 | 21 | 352 | 3.2 | 11.3 | 0.00 | 0.00 | 0.00 | 83 | 1041.5 |
| 20260509045826 | 21 | 338 | 16.1 | 19.3 | 0.00 | 0.00 | 0.00 | 83 | 1041.8 |
| 20260509045323 | 20 | 305 | 6.4 | 14.5 | 0.00 | 0.00 | 0.00 | 83 | 1039.7 |
| 20260509044820 | 20 | 197 | 6.4 | 19.3 | 0.00 | 0.00 | 0.00 | 83 | 1039.9 |
| 20260509044318 | 20 | 244 | 9.7 | 20.9 | 0.00 | 0.00 | 0.00 | 84 | 1040.0 |
| 20260509043814 | 20 | 231 | 3.2 | 11.3 | 0.00 | 0.00 | 0.00 | 84 | 1040.4 |
| 20260509043310 | 20 | 234 | 9.7 | 14.5 | 0.00 | 0.00 | 0.00 | 85 | 1040.4 |
| 20260509042806 | 20 | 244 | 3.2 | 8.0 | 0.00 | 0.00 | 0.00 | 85 | 1040.8 |
| 20260509042306 | 20 | 210 | 3.2 | 8.0 | 0.00 | 0.00 | 0.00 | 85 | 1040.9 |
| 20260509041759 | 20 | 275 | 3.2 | 6.4 | 0.00 | 0.00 | 0.00 | 85 | 1041.5 |
| 20260509041256 | 20 | 241 | 4.8 | 9.7 | 0.00 | 0.00 | 0.00 | 85 | 1041.5 |
| 20260509040755 | 20 | 268 | 4.8 | 11.3 | 0.00 | 0.00 | 0.00 | 85 | 1041.9 |
| 20260509040251 | 20 | 284 | 4.8 | 9.7 | 0.00 | 0.00 | 0.00 | 86 | 1041.7 |
| 20260509035748 | 20 | 292 | 1.6 | 4.8 | 0.00 | 0.00 | 0.00 | 86 | 1041.6 |
| 20260509035245 | 20 | 322 | 0.0 | 4.8 | 0.00 | 0.00 | 0.00 | 86 | 1041.9 |
| 20260509034742 | 20 | 299 | 4.8 | 6.4 | 0.00 | 0.00 | 0.00 | 87 | 1041.9 |
| 20260509034240 | 20 | 294 | 4.8 | 6.4 | 0.00 | 0.00 | 0.00 | 87 | 1041.8 |
| 20260509033736 | 20 | 301 | 3.2 | 4.8 | 0.00 | 0.00 | 0.00 | 86 | 1041.5 |
| 20260509033233 | 20 | 316 | 4.8 | 4.8 | 0.00 | 0.00 | 0.00 | 85 | 1041.6 |
| 20260509032730 | 20 | 349 | 3.2 | 4.8 | 0.00 | 0.00 | 0.00 | 85 | 1041.6 |
| 20260509032227 | 20 | 345 | 0.0 | 1.6 | 0.00 | 0.00 | 0.00 | 85 | 1041.3 |
| 20260509031725 | 20 | 149 | 0.0 | 1.6 | 0.00 | 0.00 | 0.00 | 86 | 1041.0 |
| 20260509031222 | 20 | 73 | 0.0 | 1.6 | 0.00 | 0.00 | 0.00 | 85 | 1041.0 |
| 20260509030720 | 20 | 70 | 1.6 | 3.2 | 0.00 | 0.00 | 0.00 | 85 | 1040.8 |
| 20260509030217 | 20 | 73 | 4.8 | 4.8 | 0.00 | 0.00 | 0.00 | 84 | 1040.7 |
| 20260509025714 | 20 | 71 | 4.8 | 4.8 | 0.00 | 0.00 | 0.00 | 83 | 1041.1 |
| 20260509025210 | 20 | 7 | 0.0 | 3.2 | 0.00 | 0.00 | 0.00 | 82 | 1040.9 |
| 20260509024705 | 21 | 69 | 0.0 | 0.0 | 0.00 | 0.00 | 0.00 | 82 | 1041.0 |
| 20260509024201 | 21 | 249 | 0.0 | 3.2 | 0.00 | 0.00 | 0.00 | 81 | 1040.8 |
| 20260509023659 | 21 | 229 | 3.2 | 4.8 | 0.00 | 0.00 | 0.00 | 81 | 1040.6 |
| 20260509023156 | 21 | 319 | 0.0 | 1.6 | 0.00 | 0.00 | 0.00 | 80 | 1040.7 |
| 20260509022652 | 21 | 149 | 3.2 | 4.8 | 0.00 | 0.00 | 0.00 | 79 | 1040.7 |
| 20260509022150 | 21 | 212 | 3.2 | 8.0 | 0.00 | 0.00 | 0.00 | 79 | 1040.4 |
| 20260509021646 | 21 | 220 | 3.2 | 6.4 | 0.00 | 0.00 | 0.00 | 80 | 1040.4 |
| 20260509021144 | 21 | 239 | 3.2 | 6.4 | 0.00 | 0.00 | 0.00 | 80 | 1040.3 |
| 20260509020642 | 21 | 198 | 3.2 | 8.0 | 0.00 | 0.00 | 0.00 | 79 | 1040.0 |
| 20260509020139 | 21 | 211 | 3.2 | 4.8 | 0.00 | 0.00 | 0.00 | 78 | 1040.4 |
| 20260509015637 | 21 | 261 | 3.2 | 3.2 | 0.00 | 0.00 | 0.00 | 77 | 1040.8 |
| 20260509015135 | 22 | 264 | 0.0 | 3.2 | 0.00 | 0.00 | 0.00 | 77 | 1040.8 |
| 20260509014631 | 22 | 297 | 1.6 | 3.2 | 0.00 | 0.00 | 0.00 | 76 | 1040.7 |
| 20260509014127 | 22 | 284 | 0.0 | 3.2 | 0.00 | 0.00 | 0.00 | 76 | 1040.4 |
| 20260509013625 | 22 | 287 | 1.6 | 3.2 | 0.00 | 0.00 | 0.00 | 76 | 1040.3 |
| 20260509013120 | 22 | 282 | 3.2 | 3.2 | 0.00 | 0.00 | 0.00 | 75 | 1040.1 |
| 20260509012617 | 22 | 188 | 3.2 | 4.8 | 0.00 | 0.00 | 0.00 | 75 | 1039.6 |
| 20260509012114 | 22 | 242 | 3.2 | 6.4 | 0.00 | 0.00 | 0.00 | 74 | 1039.6 |
| 20260509011612 | 22 | 286 | 4.8 | 8.0 | 0.00 | 0.00 | 0.00 | 74 | 1039.7 |
| 20260509011109 | 23 | 247 | 3.2 | 6.4 | 0.00 | 0.00 | 0.00 | 73 | 1039.5 |
| 20260509010607 | 23 | 193 | 3.2 | 6.4 | 0.00 | 0.00 | 0.00 | 73 | 1039.7 |
| 20260509005601 | 23 | 190 | 4.8 | 8.0 | 0.00 | 0.00 | 0.00 | 72 | 1039.3 |
| 20260509005056 | 23 | 197 | 4.8 | 6.4 | 0.00 | 0.00 | 0.00 | 71 | 1039.2 |
| 20260509004553 | 23 | 232 | 9.7 | 9.7 | 0.00 | 0.00 | 0.00 | 70 | 1039.2 |
| 20260509004050 | 24 | 222 | 0.0 | 9.7 | 0.00 | 0.00 | 0.00 | 70 | 1039.3 |
| 20260509003548 | 24 | 291 | 1.6 | 6.4 | 0.00 | 0.00 | 0.00 | 69 | 1039.4 |
| 20260509003045 | 25 | 177 | 8.0 | 8.0 | 0.00 | 0.00 | 0.00 | 68 | 1039.5 |
| 20260509002542 | 25 | 164 | 3.2 | 6.4 | 0.00 | 0.00 | 0.00 | 68 | 1039.3 |
| 20260509002040 | 25 | 278 | 3.2 | 6.4 | 0.00 | 0.00 | 0.00 | 67 | 1039.6 |
| 20260509001537 | 25 | 177 | 4.8 | 9.7 | 0.00 | 0.00 | 0.00 | 65 | 1039.5 |
| 20260509001033 | 26 | 229 | 3.2 | 8.0 | 0.00 | 0.00 | 0.00 | 65 | 1039.1 |
| 20260509000531 | 26 | 246 | 4.8 | 8.0 | 0.00 | 0.00 | 0.00 | 65 | 1039.3 |
| 20260509000027 | 26 | 256 | 4.8 | 4.8 | 0.00 | 0.00 | 0.00 | 64 | 1039.1 |
| 20260508235525 | 26 | 187 | 4.8 | 11.3 | 0.00 | 0.00 | 0.00 | 65 | 1039.2 |
| 20260508235021 | 26 | 247 | 14.5 | 19.3 | 0.00 | 0.00 | 0.00 | 64 | 1038.9 |
| 20260508234519 | 26 | 242 | 6.4 | 11.3 | 0.00 | 0.00 | 0.00 | 63 | 1039.1 |
| 20260508234015 | 26 | 262 | 4.8 | 9.7 | 0.00 | 0.00 | 0.00 | 63 | 1038.7 |
| 20260508233515 | 26 | 251 | 4.8 | 14.5 | 0.00 | 0.00 | 0.00 | 63 | 1039.0 |
| 20260508233012 | 26 | 204 | 9.7 | 11.3 | 0.00 | 0.00 | 0.00 | 62 | 1038.9 |
| 20260508232509 | 26 | 119 | 3.2 | 14.5 | 0.00 | 0.00 | 0.00 | 61 | 1038.8 |
| 20260508232005 | 26 | 254 | 3.2 | 14.5 | 0.00 | 0.00 | 0.00 | 62 | 1038.7 |
| 20260508231503 | 26 | 187 | 8.0 | 16.1 | 0.00 | 0.00 | 0.00 | 60 | 1038.8 |
| 20260508231000 | 26 | 239 | 4.8 | 12.9 | 0.00 | 0.00 | 0.00 | 60 | 1039.0 |
| 20260508230456 | 27 | 189 | 8.0 | 14.5 | 0.00 | 0.00 | 0.00 | 59 | 1038.6 |
| 20260508225953 | 27 | 180 | 11.3 | 14.5 | 0.00 | 0.00 | 0.00 | 59 | 1038.9 |
| 20260508225450 | 27 | 199 | 4.8 | 16.1 | 0.00 | 0.00 | 0.00 | 58 | 1038.9 |
| 20260508224947 | 27 | 165 | 9.7 | 14.5 | 0.00 | 0.00 | 0.00 | 56 | 1038.9 |
| 20260508224445 | 27 | 185 | 4.8 | 11.3 | 0.00 | 0.00 | 0.00 | 56 | 1039.2 |
| 20260508223942 | 27 | 202 | 3.2 | 9.7 | 0.00 | 0.00 | 0.00 | 56 | 1039.1 |
| 20260508223440 | 27 | 188 | 9.7 | 12.9 | 0.00 | 0.00 | 0.00 | 57 | 1039.1 |
| 20260508222937 | 27 | 253 | 3.2 | 9.7 | 0.00 | 0.00 | 0.00 | 55 | 1039.3 |
| 20260508222434 | 27 | 106 | 3.2 | 9.7 | 0.00 | 0.00 | 0.00 | 56 | 1039.1 |
| 20260508221931 | 27 | 201 | 4.8 | 17.7 | 0.00 | 0.00 | 0.00 | 54 | 1039.3 |
| 20260508221427 | 27 | 184 | 8.0 | 16.1 | 0.00 | 0.00 | 0.00 | 54 | 1039.5 |
| 20260508220923 | 27 | 181 | 1.6 | 9.7 | 0.00 | 0.00 | 0.00 | 54 | 1039.4 |
| 20260508220420 | 27 | 240 | 6.4 | 9.7 | 0.00 | 0.00 | 0.00 | 53 | 1039.3 |
| 20260508215916 | 27 | 203 | 4.8 | 9.7 | 0.00 | 0.00 | 0.00 | 55 | 1039.2 |
| 20260508215413 | 27 | 197 | 4.8 | 8.0 | 0.00 | 0.00 | 0.00 | 53 | 1039.4 |
| 20260508214909 | 27 | 178 | 4.8 | 8.0 | 0.00 | 0.00 | 0.00 | 54 | 1039.4 |
| 20260508214407 | 27 | 195 | 1.6 | 9.7 | 0.00 | 0.00 | 0.00 | 54 | 1039.3 |
| 20260508213903 | 27 | 186 | 6.4 | 11.3 | 0.00 | 0.00 | 0.00 | 53 | 1039.4 |
| 20260508213401 | 27 | 183 | 8.0 | 11.3 | 0.00 | 0.00 | 0.00 | 51 | 1039.7 |
| 20260508212856 | 27 | 162 | 4.8 | 8.0 | 0.00 | 0.00 | 0.00 | 53 | 1039.7 |
| 20260508212353 | 27 | 304 | 4.8 | 9.7 | 0.00 | 0.00 | 0.00 | 53 | 1039.8 |
| 20260508211849 | 27 | 210 | 8.0 | 12.9 | 0.00 | 0.00 | 0.00 | 52 | 1040.0 |
| 20260508211344 | 27 | 172 | 6.4 | 17.7 | 0.00 | 0.00 | 0.00 | 54 | 1040.1 |
| 20260508210842 | 27 | 150 | 1.6 | 16.1 | 0.00 | 0.00 | 0.00 | 54 | 1040.0 |
| 20260508210338 | 27 | 160 | 4.8 | 12.9 | 0.00 | 0.00 | 0.00 | 55 | 1040.5 |
| 20260508205835 | 27 | 181 | 3.2 | 14.5 | 0.00 | 0.00 | 0.00 | 55 | 1040.4 |
| 20260508205332 | 27 | 230 | 4.8 | 8.0 | 0.00 | 0.00 | 0.00 | 56 | 1040.4 |
| 20260508204828 | 27 | 182 | 8.0 | 16.1 | 0.00 | 0.00 | 0.00 | 53 | 1040.7 |
| 20260508204325 | 26 | 232 | 4.8 | 9.7 | 0.00 | 0.00 | 0.00 | 54 | 1040.7 |
| 20260508203821 | 26 | 220 | 6.4 | 16.1 | 0.00 | 0.00 | 0.00 | 54 | 1040.7 |
| 20260508203318 | 26 | 194 | 9.7 | 11.3 | 0.00 | 0.00 | 0.00 | 54 | 1040.8 |
| 20260508202813 | 26 | 166 | 12.9 | 17.7 | 0.00 | 0.00 | 0.00 | 53 | 1040.6 |
| 20260508202311 | 26 | 180 | 9.7 | 16.1 | 0.00 | 0.00 | 0.00 | 54 | 1040.6 |
| 20260508201808 | 26 | 191 | 9.7 | 11.3 | 0.00 | 0.00 | 0.00 | 53 | 1040.7 |
| 20260508201305 | 26 | 200 | 4.8 | 17.7 | 0.00 | 0.00 | 0.00 | 53 | 1041.0 |
| 20260508200801 | 26 | 173 | 9.7 | 16.1 | 0.00 | 0.00 | 0.00 | 53 | 1041.0 |
| 20260508200257 | 26 | 166 | 8.0 | 16.1 | 0.00 | 0.00 | 0.00 | 56 | 1041.1 |
| 20260508195754 | 26 | 211 | 4.8 | 17.7 | 0.00 | 0.00 | 0.00 | 54 | 1041.0 |
| 20260508195250 | 26 | 159 | 1.6 | 16.1 | 0.00 | 0.00 | 0.00 | 53 | 1041.2 |
| 20260508194747 | 26 | 147 | 14.5 | 22.5 | 0.00 | 0.00 | 0.00 | 52 | 1041.1 |
| 20260508194244 | 26 | 194 | 4.8 | 14.5 | 0.00 | 0.00 | 0.00 | 54 | 1041.1 |
| 20260508193741 | 26 | 179 | 11.3 | 14.5 | 0.00 | 0.00 | 0.00 | 53 | 1041.1 |
| 20260508193237 | 26 | 163 | 9.7 | 14.5 | 0.00 | 0.00 | 0.00 | 53 | 1041.4 |
| 20260508192734 | 26 | 202 | 4.8 | 8.0 | 0.00 | 0.00 | 0.00 | 55 | 1041.3 |
| 20260508192231 | 26 | 178 | 12.9 | 14.5 | 0.00 | 0.00 | 0.00 | 53 | 1041.4 |
| 20260508191728 | 26 | 208 | 8.0 | 17.7 | 0.00 | 0.00 | 0.00 | 54 | 1041.5 |
| 20260508191225 | 25 | 168 | 8.0 | 12.9 | 0.00 | 0.00 | 0.00 | 54 | 1041.6 |
| 20260508190722 | 26 | 292 | 4.8 | 12.9 | 0.00 | 0.00 | 0.00 | 53 | 1041.3 |
| 20260508190218 | 26 | 168 | 6.4 | 16.1 | 0.00 | 0.00 | 0.00 | 52 | 1041.6 |
| 20260508185715 | 26 | 251 | 4.8 | 11.3 | 0.00 | 0.00 | 0.00 | 54 | 1041.7 |
| 20260508185213 | 25 | 270 | 6.4 | 8.0 | 0.00 | 0.00 | 0.00 | 54 | 1041.8 |
| 20260508184710 | 25 | 188 | 4.8 | 14.5 | 0.00 | 0.00 | 0.00 | 51 | 1041.9 |
| 20260508184207 | 25 | 218 | 8.0 | 9.7 | 0.00 | 0.00 | 0.00 | 52 | 1042.0 |
| 20260508183704 | 25 | 189 | 8.0 | 20.9 | 0.00 | 0.00 | 0.00 | 51 | 1042.1 |
| 20260508183200 | 25 | 206 | 4.8 | 11.3 | 0.00 | 0.00 | 0.00 | 56 | 1042.1 |
| 20260508182656 | 25 | 217 | 3.2 | 11.3 | 0.00 | 0.00 | 0.00 | 55 | 1042.7 |
| 20260508182153 | 25 | 173 | 6.4 | 8.0 | 0.00 | 0.00 | 0.00 | 54 | 1042.7 |
| 20260508181649 | 25 | 222 | 4.8 | 6.4 | 0.00 | 0.00 | 0.00 | 56 | 1042.7 |
| 20260508181145 | 24 | 124 | 8.0 | 9.7 | 0.00 | 0.00 | 0.00 | 57 | 1042.9 |
| 20260508180642 | 24 | 152 | 8.0 | 9.7 | 0.00 | 0.00 | 0.00 | 56 | 1042.8 |
| 20260508180139 | 24 | 170 | 4.8 | 11.3 | 0.00 | 0.00 | 0.00 | 55 | 1043.2 |
| 20260508175636 | 23 | 250 | 1.6 | 11.3 | 0.00 | 0.00 | 0.00 | 58 | 1043.4 |
| 20260508175132 | 24 | 229 | 4.8 | 8.0 | 0.00 | 0.00 | 0.00 | 58 | 1043.4 |
| 20260508174630 | 24 | 246 | 3.2 | 9.7 | 0.00 | 0.00 | 0.00 | 57 | 1043.6 |
| 20260508174127 | 23 | 169 | 9.7 | 9.7 | 0.00 | 0.00 | 0.00 | 60 | 1043.6 |
| 20260508173624 | 23 | 142 | 6.4 | 11.3 | 0.00 | 0.00 | 0.00 | 59 | 1043.6 |
| 20260508173120 | 23 | 341 | 1.6 | 6.4 | 0.00 | 0.00 | 0.00 | 61 | 1043.7 |
| 20260508172617 | 23 | 275 | 4.8 | 16.1 | 0.00 | 0.00 | 0.00 | 60 | 1043.8 |
| 20260508172113 | 23 | 232 | 3.2 | 17.7 | 0.00 | 0.00 | 0.00 | 58 | 1043.7 |
| 20260508171610 | 23 | 168 | 3.2 | 9.7 | 0.00 | 0.00 | 0.00 | 61 | 1043.7 |
| 20260508171107 | 23 | 141 | 8.0 | 14.5 | 0.00 | 0.00 | 0.00 | 60 | 1043.8 |
| 20260508170604 | 23 | 131 | 4.8 | 14.5 | 0.00 | 0.00 | 0.00 | 63 | 1044.0 |
| 20260508165558 | 22 | 147 | 6.4 | 11.3 | 0.00 | 0.00 | 0.00 | 64 | 1044.4 |
| 20260508165055 | 22 | 254 | 6.4 | 8.0 | 0.00 | 0.00 | 0.00 | 64 | 1044.3 |
| 20260508164551 | 22 | 189 | 11.3 | 14.5 | 0.00 | 0.00 | 0.00 | 64 | 1044.5 |
| 20260508164048 | 22 | 179 | 8.0 | 14.5 | 0.00 | 0.00 | 0.00 | 63 | 1044.4 |
| 20260508163546 | 22 | 113 | 1.6 | 11.3 | 0.00 | 0.00 | 0.00 | 65 | 1044.8 |
| 20260508163042 | 21 | 172 | 8.0 | 8.0 | 0.00 | 0.00 | 0.00 | 68 | 1044.7 |
| 20260508162539 | 21 | 266 | 3.2 | 8.0 | 0.00 | 0.00 | 0.00 | 69 | 1044.7 |
| 20260508162037 | 21 | 191 | 1.6 | 9.7 | 0.00 | 0.00 | 0.00 | 68 | 1044.8 |
| 20260508161533 | 21 | 170 | 4.8 | 9.7 | 0.00 | 0.00 | 0.00 | 68 | 1045.0 |
| 20260508161030 | 20 | 263 | 8.0 | 12.9 | 0.00 | 0.00 | 0.00 | 69 | 1045.3 |
| 20260508160529 | 20 | 274 | 1.6 | 8.0 | 0.00 | 0.00 | 0.00 | 70 | 1044.9 |
| 20260508160025 | 20 | 219 | 4.8 | 6.4 | 0.00 | 0.00 | 0.00 | 69 | 1045.2 |
| 20260508155522 | 20 | 181 | 6.4 | 8.0 | 0.00 | 0.00 | 0.00 | 68 | 1045.5 |
| 20260508155019 | 20 | 176 | 3.2 | 8.0 | 0.00 | 0.00 | 0.00 | 68 | 1045.4 |
| 20260508154517 | 20 | 172 | 6.4 | 11.3 | 0.00 | 0.00 | 0.00 | 66 | 1045.4 |
| 20260508154013 | 20 | 165 | 8.0 | 9.7 | 0.00 | 0.00 | 0.00 | 64 | 1045.3 |
| 20260508153510 | 21 | 268 | 12.9 | 12.9 | 0.00 | 0.00 | 0.00 | 65 | 1045.7 |
| 20260508153007 | 21 | 281 | 4.8 | 9.7 | 0.00 | 0.00 | 0.00 | 66 | 1045.6 |
| 20260508152503 | 20 | 196 | 3.2 | 11.3 | 0.00 | 0.00 | 0.00 | 67 | 1045.2 |
| 20260508151959 | 20 | 195 | 6.4 | 16.1 | 0.00 | 0.00 | 0.00 | 66 | 1045.5 |
| 20260508151456 | 20 | 258 | 6.4 | 11.3 | 0.00 | 0.00 | 0.00 | 70 | 1045.3 |
| 20260508150952 | 20 | 215 | 9.7 | 9.7 | 0.00 | 0.00 | 0.00 | 72 | 1045.3 |
| 20260508150449 | 19 | 211 | 6.4 | 8.0 | 0.00 | 0.00 | 0.00 | 72 | 1045.3 |
| 20260508145945 | 20 | 180 | 11.3 | 16.1 | 0.00 | 0.00 | 0.00 | 70 | 1045.3 |
| 20260508145442 | 20 | 181 | 9.7 | 9.7 | 0.00 | 0.00 | 0.00 | 72 | 1045.5 |
| 20260508144939 | 19 | 200 | 4.8 | 8.0 | 0.00 | 0.00 | 0.00 | 74 | 1045.9 |
| 20260508144436 | 19 | 207 | 3.2 | 12.9 | 0.00 | 0.00 | 0.00 | 74 | 1046.0 |
| 20260508143934 | 18 | 244 | 4.8 | 8.0 | 0.00 | 0.00 | 0.00 | 76 | 1046.0 |
| 20260508143431 | 18 | 198 | 6.4 | 9.7 | 0.00 | 0.00 | 0.00 | 77 | 1046.1 |
| 20260508142927 | 18 | 225 | 4.8 | 9.7 | 0.00 | 0.00 | 0.00 | 78 | 1045.9 |
| 20260508142425 | 17 | 213 | 4.8 | 11.3 | 0.00 | 0.00 | 0.00 | 79 | 1045.8 |
| 20260508141921 | 18 | 226 | 4.8 | 9.7 | 0.00 | 0.00 | 0.00 | 78 | 1046.2 |
| 20260508141418 | 18 | 184 | 9.7 | 19.3 | 0.00 | 0.00 | 0.00 | 77 | 1045.9 |
| 20260508140915 | 18 | 200 | 3.2 | 14.5 | 0.00 | 0.00 | 0.00 | 77 | 1045.7 |
| 20260508140412 | 18 | 218 | 4.8 | 11.3 | 0.00 | 0.00 | 0.00 | 77 | 1045.9 |
| 20260508135908 | 18 | 159 | 1.6 | 8.0 | 0.00 | 0.00 | 0.00 | 77 | 1045.8 |